Location: Staunton
(38.1490°N, 79.0720°W)
Time: 14:25:31
(UTC-04:00)

ISS - Pass Details

Date: 21 May 2017
Orbit: 402 x 408 km, 51.6° (Epoch: 29 May)

Event Time Altitude Azimuth Distance (km) Brightness Sun altitude
Exits shadow 01:35:02 11° 357° (N) 1,426 -0.2 -31.4°
Drops below altitude 10° 01:35:24 10° 3° (N) 1,466 -0.1 -31.4°
Sets 01:38:47 0° 41° (NE) 2,326 0.8 -31.3°
